Time,TemperatureF,DewpointF,PressureIn,WindDirection,WindDirectionDegrees,WindSpeedMPH,WindSpeedGustMPH,Humidity,HourlyPrecipIn,Conditions,Clouds,dailyrainin,SoftwareType,DateUTC
2013-06-09 00:02:00,65.3,57.0,29.85,NNW,340,1.0,7.0,74,0.00,,,0.00,WUHU216DAVISVP2,2013-06-09 05:02:00,
2013-06-09 00:07:00,65.2,56.9,29.85,NNW,340,1.0,7.0,74,0.00,,,0.00,WUHU216DAVISVP2,2013-06-09 05:07:00,
2013-06-09 00:12:00,65.1,56.8,29.85,NNW,340,1.0,7.0,74,0.00,,,0.00,WUHU216DAVISVP2,2013-06-09 05:12:00,
2013-06-09 00:17:00,65.0,57.0,29.86,NNW,340,1.0,5.0,75,0.00,,,0.00,WUHU216DAVISVP2,2013-06-09 05:17:00,
2013-06-09 00:22:00,64.9,56.9,29.87,NNW,340,1.0,5.0,75,0.00,,,0.00,WUHU216DAVISVP2,2013-06-09 05:22:00,
2013-06-09 00:27:00,64.8,56.8,29.87,NNW,340,1.0,5.0,75,0.00,,,0.00,WUHU216DAVISVP2,2013-06-09 05:27:00,
2013-06-09 00:32:00,64.8,56.8,29.87,NNW,340,1.0,5.0,75,0.00,,,0.00,WUHU216DAVISVP2,2013-06-09 05:32:00,
2013-06-09 00:37:00,64.8,56.8,29.87,NNW,340,4.0,5.0,75,0.00,,,0.00,WUHU216DAVISVP2,2013-06-09 05:37:00,
2013-06-09 00:42:00,64.9,56.9,29.87,NNW,340,1.0,5.0,75,0.00,,,0.00,WUHU216DAVISVP2,2013-06-09 05:42:00,
2013-06-09 00:47:00,65.0,57.0,29.87,NNW,340,0.0,5.0,75,0.00,,,0.00,WUHU216DAVISVP2,2013-06-09 05:47:00,
2013-06-09 00:52:00,65.0,57.0,29.86,NNW,340,0.0,4.0,75,0.00,,,0.00,WUHU216DAVISVP2,2013-06-09 05:52:00,
2013-06-09 00:57:00,65.0,57.0,29.86,NNW,340,1.0,5.0,75,0.00,,,0.00,WUHU216DAVISVP2,2013-06-09 05:57:00,
2013-06-09 01:02:00,64.9,56.9,29.87,NNW,340,0.0,5.0,75,0.00,,,0.00,WUHU216DAVISVP2,2013-06-09 06:02:00,
2013-06-09 01:07:00,64.8,56.8,29.86,NNW,340,1.0,5.0,75,0.00,,,0.00,WUHU216DAVISVP2,2013-06-09 06:07:00,
2013-06-09 01:12:00,64.7,56.7,29.86,NNW,340,1.0,6.0,75,0.00,,,0.00,WUHU216DAVISVP2,2013-06-09 06:12:00,
2013-06-09 01:17:00,64.7,56.7,29.86,NNW,340,1.0,6.0,75,0.00,,,0.00,WUHU216DAVISVP2,2013-06-09 06:17:00,
2013-06-09 01:22:00,64.5,56.9,29.86,NNW,340,1.0,6.0,76,0.00,,,0.00,WUHU216DAVISVP2,2013-06-09 06:22:00,
2013-06-09 01:27:00,64.4,56.8,29.86,NNW,340,1.0,6.0,76,0.00,,,0.00,WUHU216DAVISVP2,2013-06-09 06:27:00,
2013-06-09 01:32:00,64.3,56.7,29.86,NNW,340,0.0,4.0,76,0.00,,,0.00,WUHU216DAVISVP2,2013-06-09 06:32:00,
2013-06-09 01:37:00,64.2,57.0,29.85,NNW,340,0.0,4.0,77,0.00,,,0.00,WUHU216DAVISVP2,2013-06-09 06:37:00,
2013-06-09 01:42:00,64.0,56.8,29.85,NNW,340,1.0,4.0,77,0.00,,,0.00,WUHU216DAVISVP2,2013-06-09 06:42:00,
2013-06-09 01:47:00,63.9,56.7,29.85,NNW,340,0.0,4.0,77,0.00,,,0.00,WUHU216DAVISVP2,2013-06-09 06:47:00,
2013-06-09 01:52:00,63.8,56.6,29.85,NNW,340,2.0,4.0,77,0.00,,,0.00,WUHU216DAVISVP2,2013-06-09 06:52:00,
2013-06-09 01:57:00,63.8,56.9,29.85,NNW,340,4.0,4.0,78,0.00,,,0.00,WUHU216DAVISVP2,2013-06-09 06:57:00,
2013-06-09 02:02:00,63.9,56.9,29.85,NNW,340,3.0,4.0,78,0.00,,,0.00,WUHU216DAVISVP2,2013-06-09 07:02:00,
2013-06-09 02:07:00,63.9,57.0,29.85,NNW,340,1.0,6.0,78,0.00,,,0.00,WUHU216DAVISVP2,2013-06-09 07:07:00,
2013-06-09 02:12:00,63.8,56.9,29.85,NNW,340,1.0,6.0,78,0.00,,,0.00,WUHU216DAVISVP2,2013-06-09 07:12:00,
2013-06-09 02:17:00,63.8,56.9,29.85,NNW,340,4.0,6.0,78,0.00,,,0.00,WUHU216DAVISVP2,2013-06-09 07:17:00,
2013-06-09 02:22:00,63.8,56.9,29.84,NNW,340,5.0,7.0,78,0.00,,,0.00,WUHU216DAVISVP2,2013-06-09 07:22:00,
2013-06-09 02:27:00,63.7,56.8,29.84,NNW,340,1.0,7.0,78,0.00,,,0.00,WUHU216DAVISVP2,2013-06-09 07:27:00,
2013-06-09 02:32:00,63.7,56.8,29.84,NNW,340,1.0,7.0,78,0.00,,,0.00,WUHU216DAVISVP2,2013-06-09 07:32:00,
2013-06-09 02:37:00,63.7,56.8,29.84,NNW,340,1.0,7.0,78,0.00,,,0.00,WUHU216DAVISVP2,2013-06-09 07:37:00,
2013-06-09 02:42:00,63.7,56.8,29.84,NNW,340,4.0,6.0,78,0.00,,,0.00,WUHU216DAVISVP2,2013-06-09 07:42:00,
2013-06-09 02:47:00,63.8,56.9,29.84,NNW,340,2.0,6.0,78,0.00,,,0.00,WUHU216DAVISVP2,2013-06-09 07:47:00,
2013-06-09 02:52:00,63.9,57.0,29.85,NNW,340,2.0,6.0,78,0.00,,,0.00,WUHU216DAVISVP2,2013-06-09 07:52:00,
2013-06-09 02:57:00,64.0,57.1,29.85,NNW,340,4.0,6.0,78,0.00,,,0.00,WUHU216DAVISVP2,2013-06-09 07:57:00,
2013-06-09 03:02:00,64.0,57.1,29.85,NNW,340,2.0,5.0,78,0.00,,,0.00,WUHU216DAVISVP2,2013-06-09 08:02:00,
2013-06-09 03:07:00,64.1,57.2,29.85,NNW,340,4.0,6.0,78,0.00,,,0.00,WUHU216DAVISVP2,2013-06-09 08:07:00,
2013-06-09 03:12:00,64.1,57.2,29.85,NNW,340,0.0,6.0,78,0.00,,,0.00,WUHU216DAVISVP2,2013-06-09 08:12:00,
2013-06-09 03:17:00,64.2,57.2,29.84,NNW,340,1.0,6.0,78,0.00,,,0.00,WUHU216DAVISVP2,2013-06-09 08:17:00,
2013-06-09 03:22:00,64.1,57.2,29.84,NNW,340,0.0,6.0,78,0.00,,,0.00,WUHU216DAVISVP2,2013-06-09 08:22:00,
2013-06-09 03:27:00,64.1,57.2,29.84,NNW,340,1.0,5.0,78,0.00,,,0.00,WUHU216DAVISVP2,2013-06-09 08:27:00,
2013-06-09 03:32:00,64.0,57.1,29.84,NNW,340,4.0,6.0,78,0.00,,,0.00,WUHU216DAVISVP2,2013-06-09 08:32:00,
2013-06-09 03:37:00,63.9,57.4,29.84,NNW,340,1.0,6.0,79,0.00,,,0.00,WUHU216DAVISVP2,2013-06-09 08:37:00,
2013-06-09 03:42:00,64.0,57.0,29.84,NNW,340,4.0,6.0,78,0.00,,,0.00,WUHU216DAVISVP2,2013-06-09 08:42:00,
2013-06-09 03:47:00,64.0,57.1,29.84,NNW,340,1.0,6.0,78,0.00,,,0.00,WUHU216DAVISVP2,2013-06-09 08:47:00,
2013-06-09 03:52:00,64.0,57.1,29.84,NNW,340,3.0,5.0,78,0.00,,,0.00,WUHU216DAVISVP2,2013-06-09 08:52:00,
2013-06-09 03:57:00,64.1,57.2,29.84,NNW,340,2.0,5.0,78,0.00,,,0.00,WUHU216DAVISVP2,2013-06-09 08:57:00,
2013-06-09 04:02:00,64.1,57.2,29.84,NNW,340,1.0,5.0,78,0.00,,,0.00,WUHU216DAVISVP2,2013-06-09 09:02:00,
2013-06-09 04:07:00,64.2,57.3,29.84,NNW,340,1.0,5.0,78,0.00,,,0.00,WUHU216DAVISVP2,2013-06-09 09:07:00,
2013-06-09 04:12:00,64.2,57.3,29.83,NNW,340,2.0,5.0,78,0.00,,,0.00,WUHU216DAVISVP2,2013-06-09 09:12:00,
2013-06-09 04:17:00,64.2,57.3,29.84,NNW,340,3.0,5.0,78,0.00,,,0.00,WUHU216DAVISVP2,2013-06-09 09:17:00,
2013-06-09 04:22:00,64.1,57.2,29.84,NNW,340,1.0,4.0,78,0.00,,,0.00,WUHU216DAVISVP2,2013-06-09 09:22:00,
2013-06-09 04:27:00,64.2,57.3,29.83,NNW,340,0.0,4.0,78,0.00,,,0.00,WUHU216DAVISVP2,2013-06-09 09:27:00,
2013-06-09 04:32:00,64.2,57.3,29.84,NNW,340,3.0,4.0,78,0.00,,,0.00,WUHU216DAVISVP2,2013-06-09 09:32:00,
2013-06-09 04:37:00,64.2,57.3,29.83,NNW,340,0.0,4.0,78,0.00,,,0.00,WUHU216DAVISVP2,2013-06-09 09:37:00,
2013-06-09 04:42:00,64.2,57.2,29.83,NNW,340,3.0,4.0,78,0.00,,,0.00,WUHU216DAVISVP2,2013-06-09 09:42:00,
2013-06-09 04:47:00,64.1,57.2,29.83,NNW,340,1.0,4.0,78,0.00,,,0.00,WUHU216DAVISVP2,2013-06-09 09:47:00,
2013-06-09 04:52:00,64.0,57.4,29.83,NNW,340,3.0,6.0,79,0.00,,,0.00,WUHU216DAVISVP2,2013-06-09 09:52:00,
2013-06-09 04:57:00,63.9,57.4,29.83,NNW,338,4.0,7.0,79,0.00,,,0.00,WUHU216DAVISVP2,2013-06-09 09:57:00,
2013-06-09 05:02:00,64.0,57.4,29.83,NNW,335,4.0,7.0,79,0.00,,,0.00,WUHU216DAVISVP2,2013-06-09 10:02:00,
2013-06-09 05:07:00,63.9,57.3,29.83,NNW,333,4.0,7.0,79,0.00,,,0.00,WUHU216DAVISVP2,2013-06-09 10:07:00,
2013-06-09 05:12:00,64.0,57.5,29.83,NNW,332,4.0,7.0,79,0.00,,,0.00,WUHU216DAVISVP2,2013-06-09 10:12:00,
2013-06-09 05:17:00,64.1,57.5,29.82,NW,323,5.0,7.0,79,0.00,,,0.00,WUHU216DAVISVP2,2013-06-09 10:17:00,
2013-06-09 05:22:00,64.1,57.5,29.83,NW,325,7.0,7.0,79,0.00,,,0.00,WUHU216DAVISVP2,2013-06-09 10:22:00,
2013-06-09 05:27:00,64.2,57.6,29.83,NW,326,5.0,8.0,79,0.00,,,0.00,WUHU216DAVISVP2,2013-06-09 10:27:00,
2013-06-09 05:32:00,64.3,57.7,29.83,NW,326,3.0,8.0,79,0.00,,,0.00,WUHU216DAVISVP2,2013-06-09 10:32:00,
2013-06-09 05:37:00,64.2,57.6,29.83,NW,326,2.0,8.0,79,0.00,,,0.00,WUHU216DAVISVP2,2013-06-09 10:37:00,
2013-06-09 05:42:00,64.2,57.6,29.83,NW,326,3.0,7.0,79,0.00,,,0.00,WUHU216DAVISVP2,2013-06-09 10:42:00,
2013-06-09 05:47:00,64.3,57.7,29.83,NNW,327,1.0,6.0,79,0.00,,,0.00,WUHU216DAVISVP2,2013-06-09 10:47:00,
2013-06-09 05:52:00,64.3,57.7,29.83,NNW,330,5.0,8.0,79,0.00,,,0.00,WUHU216DAVISVP2,2013-06-09 10:52:00,
2013-06-09 05:57:00,64.4,57.8,29.82,NNW,334,7.0,8.0,79,0.00,,,0.00,WUHU216DAVISVP2,2013-06-09 10:57:00,
2013-06-09 06:02:00,64.6,58.0,29.82,NNW,338,4.0,8.0,79,0.00,,,0.00,WUHU216DAVISVP2,2013-06-09 11:02:00,
2013-06-09 06:07:00,64.6,58.0,29.82,NNW,339,4.0,8.0,79,0.00,,,0.00,WUHU216DAVISVP2,2013-06-09 11:07:00,
2013-06-09 06:12:00,64.6,58.0,29.82,NNW,336,1.0,8.0,79,0.00,,,0.00,WUHU216DAVISVP2,2013-06-09 11:12:00,
2013-06-09 06:17:00,64.7,58.1,29.82,NNW,335,4.0,8.0,79,0.00,,,0.00,WUHU216DAVISVP2,2013-06-09 11:17:00,
2013-06-09 06:22:00,64.6,58.0,29.82,NNW,334,4.0,8.0,79,0.00,,,0.00,WUHU216DAVISVP2,2013-06-09 11:22:00,
2013-06-09 06:27:00,64.5,58.3,29.82,NNW,335,1.0,8.0,80,0.00,,,0.00,WUHU216DAVISVP2,2013-06-09 11:27:00,
2013-06-09 06:32:00,64.6,58.3,29.83,NNW,335,1.0,8.0,80,0.00,,,0.00,WUHU216DAVISVP2,2013-06-09 11:32:00,
2013-06-09 06:37:00,64.6,58.4,29.82,NNW,333,4.0,8.0,80,0.00,,,0.00,WUHU216DAVISVP2,2013-06-09 11:37:00,
2013-06-09 06:42:00,64.6,58.4,29.82,NNW,340,5.0,8.0,80,0.00,,,0.00,WUHU216DAVISVP2,2013-06-09 11:42:00,
2013-06-09 06:47:00,64.7,58.8,29.83,NNW,341,3.0,8.0,81,0.00,,,0.00,WUHU216DAVISVP2,2013-06-09 11:47:00,
2013-06-09 06:52:00,64.6,58.7,29.83,NNW,337,4.0,8.0,81,0.00,,,0.00,WUHU216DAVISVP2,2013-06-09 11:52:00,
2013-06-09 06:57:00,64.5,59.0,29.83,NNW,337,1.0,8.0,82,0.00,,,0.00,WUHU216DAVISVP2,2013-06-09 11:57:00,
2013-06-09 07:02:00,64.5,58.9,29.83,NNW,337,3.0,8.0,82,0.00,,,0.00,WUHU216DAVISVP2,2013-06-09 12:02:00,
2013-06-09 07:07:00,64.4,58.8,29.83,NNW,337,1.0,8.0,82,0.00,,,0.00,WUHU216DAVISVP2,2013-06-09 12:07:00,
2013-06-09 07:12:00,64.4,59.2,29.83,NNW,337,4.0,7.0,83,0.00,,,0.00,WUHU216DAVISVP2,2013-06-09 12:12:00,
2013-06-09 07:17:00,64.4,59.1,29.82,NNW,337,0.0,7.0,83,0.00,,,0.00,WUHU216DAVISVP2,2013-06-09 12:17:00,
2013-06-09 07:22:00,64.4,59.2,29.82,NNW,337,1.0,6.0,83,0.00,,,0.00,WUHU216DAVISVP2,2013-06-09 12:22:00,
2013-06-09 07:27:00,64.5,59.2,29.82,NNW,337,1.0,6.0,83,0.00,,,0.00,WUHU216DAVISVP2,2013-06-09 12:27:00,
2013-06-09 07:32:00,64.5,59.3,29.82,NNW,337,0.0,5.0,83,0.00,,,0.00,WUHU216DAVISVP2,2013-06-09 12:32:00,
2013-06-09 07:37:00,64.5,59.3,29.83,NNW,337,0.0,5.0,83,0.00,,,0.00,WUHU216DAVISVP2,2013-06-09 12:37:00,
2013-06-09 07:42:00,64.7,59.4,29.83,NNW,337,0.0,4.0,83,0.00,,,0.00,WUHU216DAVISVP2,2013-06-09 12:42:00,
2013-06-09 07:47:00,64.8,59.6,29.83,NNW,337,0.0,4.0,83,0.00,,,0.00,WUHU216DAVISVP2,2013-06-09 12:47:00,
2013-06-09 07:52:00,64.8,59.6,29.83,NNW,337,0.0,4.0,83,0.00,,,0.00,WUHU216DAVISVP2,2013-06-09 12:52:00,
2013-06-09 07:57:00,64.9,59.6,29.84,NNW,337,1.0,4.0,83,0.00,,,0.00,WUHU216DAVISVP2,2013-06-09 12:57:00,
2013-06-09 08:02:00,64.9,60.0,29.84,NNW,337,0.0,4.0,84,0.00,,,0.00,WUHU216DAVISVP2,2013-06-09 13:02:00,
2013-06-09 08:07:00,64.8,60.2,29.83,NW,304,3.0,5.0,85,0.00,,,0.00,WUHU216DAVISVP2,2013-06-09 13:07:00,
2013-06-09 08:12:00,64.5,59.9,29.84,SSE,165,5.0,5.0,85,0.00,,,0.00,WUHU216DAVISVP2,2013-06-09 13:12:00,
2013-06-09 08:17:00,64.0,59.8,29.85,SSE,153,3.0,8.0,86,0.00,,,0.00,WUHU216DAVISVP2,2013-06-09 13:17:00,
2013-06-09 08:22:00,63.4,59.8,29.88,SSE,156,9.0,11.0,88,0.06,,,0.06,WUHU216DAVISVP2,2013-06-09 13:22:00,
2013-06-09 08:27:00,62.4,59.4,29.86,SSE,148,6.0,11.0,90,0.13,,,0.13,WUHU216DAVISVP2,2013-06-09 13:27:00,
2013-06-09 08:32:00,61.8,59.1,29.88,South,181,6.0,11.0,91,0.14,,,0.14,WUHU216DAVISVP2,2013-06-09 13:32:00,
2013-06-09 08:37:00,61.3,58.9,29.87,SSW,210,7.0,11.0,92,0.15,,,0.15,WUHU216DAVISVP2,2013-06-09 13:37:00,
2013-06-09 08:42:00,60.8,58.4,29.87,South,185,3.0,17.0,92,0.16,,,0.16,WUHU216DAVISVP2,2013-06-09 13:42:00,
2013-06-09 08:47:00,60.5,58.4,29.87,WSW,237,5.0,17.0,93,0.17,,,0.17,WUHU216DAVISVP2,2013-06-09 13:47:00,
2013-06-09 08:52:00,60.3,58.2,29.87,SSW,212,13.0,17.0,93,0.17,,,0.17,WUHU216DAVISVP2,2013-06-09 13:52:00,
2013-06-09 08:57:00,60.0,58.0,29.87,SW,216,7.0,17.0,93,0.18,,,0.18,WUHU216DAVISVP2,2013-06-09 13:57:00,
2013-06-09 09:02:00,59.7,57.6,29.86,WSW,237,9.0,16.0,93,0.19,,,0.19,WUHU216DAVISVP2,2013-06-09 14:02:00,
2013-06-09 09:07:00,59.4,57.3,29.86,WSW,237,8.0,15.0,93,0.19,,,0.19,WUHU216DAVISVP2,2013-06-09 14:07:00,
2013-06-09 09:12:00,59.2,57.1,29.86,SW,231,7.0,14.0,93,0.20,,,0.20,WUHU216DAVISVP2,2013-06-09 14:12:00,
2013-06-09 09:17:00,58.9,56.9,29.85,WSW,255,9.0,13.0,93,0.21,,,0.21,WUHU216DAVISVP2,2013-06-09 14:17:00,
2013-06-09 09:22:00,58.8,56.7,29.86,WSW,241,8.0,13.0,93,0.14,,,0.21,WUHU216DAVISVP2,2013-06-09 14:22:00,
2013-06-09 09:27:00,58.5,56.2,29.85,WSW,238,11.0,13.0,92,0.08,,,0.21,WUHU216DAVISVP2,2013-06-09 14:27:00,
2013-06-09 09:33:00,58.4,56.0,29.85,SW,231,6.0,12.0,92,0.07,,,0.21,WUHU216DAVISVP2,2013-06-09 14:33:00,
2013-06-09 09:37:00,58.3,55.9,29.85,WSW,237,5.0,12.0,92,0.06,,,0.21,WUHU216DAVISVP2,2013-06-09 14:37:00,
2013-06-09 09:42:00,58.0,55.4,29.86,SW,220,7.0,12.0,91,0.05,,,0.21,WUHU216DAVISVP2,2013-06-09 14:42:00,
2013-06-09 09:47:00,58.0,55.3,29.86,South,191,2.0,10.0,91,0.04,,,0.21,WUHU216DAVISVP2,2013-06-09 14:47:00,
2013-06-09 09:53:00,57.9,55.2,29.85,South,187,1.0,10.0,91,0.04,,,0.21,WUHU216DAVISVP2,2013-06-09 14:53:00,
2013-06-09 09:58:00,57.8,55.5,29.85,SSW,201,3.0,10.0,92,0.03,,,0.21,WUHU216DAVISVP2,2013-06-09 14:58:00,
2013-06-09 10:02:00,57.7,55.4,29.85,SSW,200,3.0,8.0,92,0.03,,,0.22,WUHU216DAVISVP2,2013-06-09 15:02:00,
2013-06-09 10:07:00,57.5,55.1,29.85,SSW,208,7.0,9.0,92,0.03,,,0.22,WUHU216DAVISVP2,2013-06-09 15:07:00,
2013-06-09 10:13:00,57.3,54.9,29.85,SSW,210,2.0,9.0,92,0.02,,,0.22,WUHU216DAVISVP2,2013-06-09 15:13:00,
2013-06-09 10:18:00,57.0,54.7,29.85,WSW,241,3.0,9.0,92,0.02,,,0.23,WUHU216DAVISVP2,2013-06-09 15:18:00,
2013-06-09 10:23:00,56.8,54.5,29.85,West,274,4.0,9.0,92,0.02,,,0.23,WUHU216DAVISVP2,2013-06-09 15:23:00,
2013-06-09 10:27:00,56.6,54.3,29.84,WNW,288,3.0,9.0,92,0.02,,,0.23,WUHU216DAVISVP2,2013-06-09 15:27:00,
2013-06-09 10:32:00,56.6,54.6,29.84,WNW,282,3.0,9.0,93,0.02,,,0.23,WUHU216DAVISVP2,2013-06-09 15:32:00,
2013-06-09 10:37:00,56.8,54.7,29.85,West,261,2.0,9.0,93,0.03,,,0.24,WUHU216DAVISVP2,2013-06-09 15:37:00,
2013-06-09 10:42:00,57.3,55.5,29.85,WNW,296,0.0,9.0,94,0.03,,,0.24,WUHU216DAVISVP2,2013-06-09 15:42:00,
2013-06-09 10:47:00,58.0,56.2,29.84,WNW,287,4.0,8.0,94,0.03,,,0.24,WUHU216DAVISVP2,2013-06-09 15:47:00,
2013-06-09 10:52:00,58.4,56.6,29.84,West,266,5.0,9.0,94,0.03,,,0.24,WUHU216DAVISVP2,2013-06-09 15:52:00,
2013-06-09 10:57:00,58.3,55.9,29.85,WNW,296,5.0,9.0,92,0.04,,,0.25,WUHU216DAVISVP2,2013-06-09 15:57:00,
2013-06-09 11:02:00,58.1,55.4,29.85,West,281,4.0,9.0,91,0.03,,,0.25,WUHU216DAVISVP2,2013-06-09 16:02:00,
2013-06-09 11:07:00,58.0,55.4,29.85,NW,306,7.0,9.0,91,0.03,,,0.25,WUHU216DAVISVP2,2013-06-09 16:07:00,
2013-06-09 11:12:00,57.9,55.3,29.85,WNW,300,2.0,9.0,91,0.03,,,0.25,WUHU216DAVISVP2,2013-06-09 16:12:00,
2013-06-09 11:18:00,58.0,55.4,29.84,NW,306,4.0,8.0,91,0.02,,,0.25,WUHU216DAVISVP2,2013-06-09 16:18:00,
2013-06-09 11:22:00,58.0,55.6,29.84,WNW,299,3.0,9.0,92,0.02,,,0.25,WUHU216DAVISVP2,2013-06-09 16:22:00,
2013-06-09 11:27:00,58.1,55.7,29.85,NW,306,1.0,9.0,92,0.02,,,0.25,WUHU216DAVISVP2,2013-06-09 16:27:00,
2013-06-09 11:33:00,58.2,55.9,29.85,NW,325,2.0,9.0,92,0.02,,,0.25,WUHU216DAVISVP2,2013-06-09 16:33:00,
2013-06-09 11:38:00,58.2,55.3,29.85,WNW,295,6.0,9.0,90,0.01,,,0.25,WUHU216DAVISVP2,2013-06-09 16:38:00,
2013-06-09 11:43:00,58.3,55.3,29.85,WNW,299,4.0,9.0,90,0.01,,,0.25,WUHU216DAVISVP2,2013-06-09 16:43:00,
2013-06-09 11:48:00,58.3,55.4,29.85,WNW,299,2.0,8.0,90,0.01,,,0.25,WUHU216DAVISVP2,2013-06-09 16:48:00,
2013-06-09 11:53:00,58.6,55.9,29.84,NW,322,1.0,8.0,91,0.01,,,0.25,WUHU216DAVISVP2,2013-06-09 16:53:00,
2013-06-09 11:58:00,58.9,56.0,29.84,WNW,285,6.0,8.0,90,0.00,,,0.25,WUHU216DAVISVP2,2013-06-09 16:58:00,
2013-06-09 12:03:00,59.4,56.4,29.83,WNW,291,6.0,8.0,90,0.00,,,0.25,WUHU216DAVISVP2,2013-06-09 17:03:00,
2013-06-09 12:08:00,59.9,56.6,29.81,WNW,284,4.0,9.0,89,0.00,,,0.25,WUHU216DAVISVP2,2013-06-09 17:08:00,
2013-06-09 12:13:00,59.8,56.2,29.80,West,277,2.0,12.0,88,0.00,,,0.25,WUHU216DAVISVP2,2013-06-09 17:13:00,
2013-06-09 12:18:00,59.8,56.9,29.83,NW,325,6.0,12.0,90,0.00,,,0.25,WUHU216DAVISVP2,2013-06-09 17:18:00,
2013-06-09 12:23:00,60.0,56.7,29.84,NNW,333,2.0,12.0,89,0.00,,,0.25,WUHU216DAVISVP2,2013-06-09 17:23:00,
2013-06-09 12:28:00,60.2,56.9,29.84,NNW,333,2.0,12.0,89,0.00,,,0.25,WUHU216DAVISVP2,2013-06-09 17:28:00,
2013-06-09 12:32:00,60.5,57.2,29.84,North,8,0.0,7.0,89,0.00,,,0.25,WUHU216DAVISVP2,2013-06-09 17:32:00,
2013-06-09 12:37:00,60.9,58.3,29.84,NE,44,1.0,7.0,91,0.00,,,0.25,WUHU216DAVISVP2,2013-06-09 17:37:00,
2013-06-09 12:43:00,61.2,57.9,29.84,North,360,2.0,9.0,89,0.00,,,0.25,WUHU216DAVISVP2,2013-06-09 17:43:00,
2013-06-09 12:48:00,61.7,58.1,29.84,NE,36,7.0,9.0,88,0.00,,,0.25,WUHU216DAVISVP2,2013-06-09 17:48:00,
2013-06-09 12:53:00,62.0,58.1,29.84,NNE,20,7.0,9.0,87,0.00,,,0.25,WUHU216DAVISVP2,2013-06-09 17:53:00,
2013-06-09 12:58:00,62.2,57.6,29.84,North,6,2.0,9.0,85,0.00,,,0.25,WUHU216DAVISVP2,2013-06-09 17:58:00,
2013-06-09 13:03:00,62.6,58.4,29.84,North,10,1.0,7.0,86,0.00,,,0.25,WUHU216DAVISVP2,2013-06-09 18:03:00,
2013-06-09 13:08:00,63.0,58.4,29.84,NE,39,0.0,7.0,85,0.00,,,0.25,WUHU216DAVISVP2,2013-06-09 18:08:00,
2013-06-09 13:13:00,63.0,58.1,29.83,ENE,64,1.0,7.0,84,0.00,,,0.25,WUHU216DAVISVP2,2013-06-09 18:13:00,
2013-06-09 13:18:00,63.4,59.2,29.83,NE,39,0.0,7.0,86,0.00,,,0.25,WUHU216DAVISVP2,2013-06-09 18:18:00,
2013-06-09 13:23:00,64.2,59.7,29.83,NE,46,3.0,8.0,85,0.00,,,0.25,WUHU216DAVISVP2,2013-06-09 18:23:00,
2013-06-09 13:28:00,64.7,60.1,29.83,North,6,4.0,8.0,85,0.00,,,0.25,WUHU216DAVISVP2,2013-06-09 18:28:00,
2013-06-09 13:33:00,64.9,59.3,29.83,East,87,3.0,9.0,82,0.00,,,0.25,WUHU216DAVISVP2,2013-06-09 18:33:00,
2013-06-09 13:38:00,65.7,60.5,29.82,NE,43,4.0,9.0,83,0.00,,,0.25,WUHU216DAVISVP2,2013-06-09 18:38:00,
2013-06-09 13:43:00,66.0,60.0,29.82,ENE,75,6.0,9.0,81,0.00,,,0.25,WUHU216DAVISVP2,2013-06-09 18:43:00,
2013-06-09 13:48:00,66.0,60.4,29.82,ENE,71,4.0,12.0,82,0.00,,,0.25,WUHU216DAVISVP2,2013-06-09 18:48:00,
2013-06-09 13:53:00,66.3,59.7,29.82,East,98,4.0,12.0,79,0.00,,,0.25,WUHU216DAVISVP2,2013-06-09 18:53:00,
2013-06-09 13:58:00,66.8,60.1,29.82,East,82,9.0,12.0,79,0.00,,,0.25,WUHU216DAVISVP2,2013-06-09 18:58:00,
2013-06-09 14:03:00,67.2,60.6,29.81,East,91,14.0,14.0,79,0.00,,,0.25,WUHU216DAVISVP2,2013-06-09 19:03:00,
2013-06-09 14:08:00,67.4,60.7,29.81,ENE,73,14.0,15.0,79,0.00,,,0.25,WUHU216DAVISVP2,2013-06-09 19:08:00,
2013-06-09 14:13:00,67.7,60.7,29.81,ESE,113,9.0,15.0,78,0.00,,,0.25,WUHU216DAVISVP2,2013-06-09 19:13:00,
2013-06-09 14:18:00,67.7,59.2,29.81,East,96,8.0,15.0,74,0.00,,,0.25,WUHU216DAVISVP2,2013-06-09 19:18:00,
2013-06-09 14:23:00,67.7,58.8,29.81,East,101,7.0,15.0,73,0.00,,,0.25,WUHU216DAVISVP2,2013-06-09 19:23:00,
2013-06-09 14:28:00,68.2,59.8,29.81,East,89,9.0,16.0,74,0.00,,,0.25,WUHU216DAVISVP2,2013-06-09 19:28:00,
2013-06-09 14:33:00,68.6,59.4,29.80,ESE,102,3.0,16.0,72,0.00,,,0.25,WUHU216DAVISVP2,2013-06-09 19:33:00,
2013-06-09 14:38:00,69.2,60.3,29.80,East,100,6.0,15.0,73,0.00,,,0.25,WUHU216DAVISVP2,2013-06-09 19:38:00,
2013-06-09 14:43:00,69.5,59.8,29.80,ESE,120,7.0,15.0,71,0.00,,,0.25,WUHU216DAVISVP2,2013-06-09 19:43:00,
2013-06-09 14:48:00,69.7,58.5,29.80,East,92,5.0,16.0,67,0.00,,,0.25,WUHU216DAVISVP2,2013-06-09 19:48:00,
2013-06-09 14:53:00,70.3,58.2,29.80,SSE,155,9.0,18.0,65,0.00,,,0.25,WUHU216DAVISVP2,2013-06-09 19:53:00,
2013-06-09 14:58:00,70.6,59.7,29.80,SE,143,12.0,18.0,68,0.00,,,0.25,WUHU216DAVISVP2,2013-06-09 19:58:00,
2013-06-09 15:03:00,70.9,59.6,29.79,SE,127,8.0,18.0,67,0.00,,,0.25,WUHU216DAVISVP2,2013-06-09 20:03:00,
2013-06-09 15:08:00,71.1,58.5,29.79,ESE,102,6.0,18.0,64,0.00,,,0.25,WUHU216DAVISVP2,2013-06-09 20:08:00,
2013-06-09 15:13:00,71.3,58.2,29.79,SE,132,4.0,14.0,63,0.00,,,0.25,WUHU216DAVISVP2,2013-06-09 20:13:00,
2013-06-09 15:18:00,71.8,60.0,29.79,SSE,154,5.0,14.0,66,0.00,,,0.25,WUHU216DAVISVP2,2013-06-09 20:18:00,
2013-06-09 15:23:00,72.4,60.2,29.79,SE,124,5.0,14.0,65,0.00,,,0.25,WUHU216DAVISVP2,2013-06-09 20:23:00,
2013-06-09 15:28:00,73.0,59.0,29.79,ESE,120,13.0,14.0,61,0.00,,,0.25,WUHU216DAVISVP2,2013-06-09 20:28:00,
2013-06-09 15:33:00,72.9,58.9,29.79,ESE,107,8.0,16.0,61,0.00,,,0.25,WUHU216DAVISVP2,2013-06-09 20:33:00,
2013-06-09 15:38:00,73.1,57.7,29.79,ESE,121,7.0,16.0,58,0.00,,,0.25,WUHU216DAVISVP2,2013-06-09 20:38:00,
2013-06-09 15:43:00,73.6,57.1,29.79,SE,125,10.0,16.0,56,0.00,,,0.25,WUHU216DAVISVP2,2013-06-09 20:43:00,
2013-06-09 15:48:00,73.8,57.3,29.79,East,79,7.0,15.0,56,0.00,,,0.25,WUHU216DAVISVP2,2013-06-09 20:48:00,
2013-06-09 15:53:00,74.2,58.2,29.79,East,97,8.0,15.0,57,0.00,,,0.25,WUHU216DAVISVP2,2013-06-09 20:53:00,
2013-06-09 15:58:00,74.2,56.7,29.79,South,181,5.0,15.0,54,0.00,,,0.25,WUHU216DAVISVP2,2013-06-09 20:58:00,
2013-06-09 16:03:00,73.8,55.7,29.79,SSE,148,8.0,16.0,53,0.00,,,0.25,WUHU216DAVISVP2,2013-06-09 21:03:00,
2013-06-09 16:08:00,74.1,57.0,29.79,SE,143,5.0,16.0,55,0.00,,,0.25,WUHU216DAVISVP2,2013-06-09 21:08:00,
2013-06-09 16:13:00,74.3,57.3,29.79,SSE,156,9.0,16.0,55,0.00,,,0.25,WUHU216DAVISVP2,2013-06-09 21:13:00,
2013-06-09 16:18:00,74.4,56.9,29.79,SSE,166,5.0,16.0,54,0.00,,,0.25,WUHU216DAVISVP2,2013-06-09 21:18:00,
2013-06-09 16:23:00,74.5,57.4,29.79,ESE,121,3.0,14.0,55,0.00,,,0.25,WUHU216DAVISVP2,2013-06-09 21:23:00,
2013-06-09 16:28:00,74.5,56.9,29.79,SE,127,8.0,14.0,54,0.00,,,0.25,WUHU216DAVISVP2,2013-06-09 21:28:00,
2013-06-09 16:33:00,74.8,57.2,29.79,SE,136,4.0,14.0,54,0.00,,,0.25,WUHU216DAVISVP2,2013-06-09 21:33:00,
2013-06-09 16:38:00,75.4,57.8,29.79,ESE,116,8.0,14.0,54,0.00,,,0.25,WUHU216DAVISVP2,2013-06-09 21:38:00,
2013-06-09 16:43:00,76.0,58.8,29.78,SE,135,4.0,13.0,55,0.00,,,0.25,WUHU216DAVISVP2,2013-06-09 21:43:00,
2013-06-09 16:48:00,76.2,58.0,29.78,SE,137,10.0,15.0,53,0.00,,,0.25,WUHU216DAVISVP2,2013-06-09 21:48:00,
2013-06-09 16:53:00,75.5,58.4,29.78,SE,127,8.0,15.0,55,0.00,,,0.25,WUHU216DAVISVP2,2013-06-09 21:53:00,
2013-06-09 16:58:00,75.8,59.1,29.78,ESE,118,6.0,15.0,56,0.00,,,0.25,WUHU216DAVISVP2,2013-06-09 21:58:00,
2013-06-09 17:03:00,76.3,59.1,29.78,SE,132,9.0,15.0,55,0.00,,,0.25,WUHU216DAVISVP2,2013-06-09 22:03:00,
2013-06-09 17:08:00,76.5,59.3,29.78,SE,128,2.0,12.0,55,0.00,,,0.25,WUHU216DAVISVP2,2013-06-09 22:08:00,
2013-06-09 17:13:00,77.2,59.5,29.78,SE,131,4.0,11.0,54,0.00,,,0.25,WUHU216DAVISVP2,2013-06-09 22:13:00,
2013-06-09 17:18:00,77.6,60.3,29.78,SE,130,10.0,13.0,55,0.00,,,0.25,WUHU216DAVISVP2,2013-06-09 22:18:00,
2013-06-09 17:23:00,77.7,59.4,29.78,ESE,116,8.0,14.0,53,0.00,,,0.25,WUHU216DAVISVP2,2013-06-09 22:23:00,
2013-06-09 17:28:00,77.6,59.3,29.78,ESE,114,7.0,14.0,53,0.00,,,0.25,WUHU216DAVISVP2,2013-06-09 22:28:00,
2013-06-09 17:33:00,77.9,59.5,29.78,SE,129,8.0,14.0,53,0.00,,,0.25,WUHU216DAVISVP2,2013-06-09 22:33:00,
2013-06-09 17:38:00,78.1,59.7,29.78,ESE,112,9.0,14.0,53,0.00,,,0.25,WUHU216DAVISVP2,2013-06-09 22:38:00,
2013-06-09 17:43:00,78.4,60.5,29.78,ESE,102,6.0,15.0,54,0.00,,,0.25,WUHU216DAVISVP2,2013-06-09 22:43:00,
2013-06-09 17:48:00,78.3,59.9,29.78,SE,132,5.0,15.0,53,0.00,,,0.25,WUHU216DAVISVP2,2013-06-09 22:48:00,
2013-06-09 17:53:00,77.9,61.1,29.78,ESE,106,6.0,15.0,56,0.00,,,0.25,WUHU216DAVISVP2,2013-06-09 22:53:00,
2013-06-09 17:58:00,78.2,61.4,29.78,SE,133,7.0,15.0,56,0.00,,,0.25,WUHU216DAVISVP2,2013-06-09 22:58:00,
2013-06-09 18:03:00,78.8,60.9,29.78,East,91,3.0,14.0,54,0.00,,,0.25,WUHU216DAVISVP2,2013-06-09 23:03:00,
2013-06-09 18:08:00,78.6,60.8,29.78,ESE,107,9.0,14.0,54,0.00,,,0.25,WUHU216DAVISVP2,2013-06-09 23:08:00,
2013-06-09 18:13:00,78.4,60.5,29.78,SE,131,7.0,14.0,54,0.00,,,0.25,WUHU216DAVISVP2,2013-06-09 23:13:00,
2013-06-09 18:18:00,78.5,61.1,29.78,ESE,121,10.0,14.0,55,0.00,,,0.25,WUHU216DAVISVP2,2013-06-09 23:18:00,
2013-06-09 18:23:00,78.3,61.0,29.78,ESE,104,3.0,13.0,55,0.00,,,0.25,WUHU216DAVISVP2,2013-06-09 23:23:00,
2013-06-09 18:28:00,78.3,61.0,29.78,ESE,109,11.0,14.0,55,0.00,,,0.25,WUHU216DAVISVP2,2013-06-09 23:28:00,
2013-06-09 18:33:00,78.0,61.7,29.78,SE,129,5.0,14.0,57,0.00,,,0.25,WUHU216DAVISVP2,2013-06-09 23:33:00,
2013-06-09 18:38:00,78.0,60.7,29.78,ESE,122,2.0,14.0,55,0.00,,,0.25,WUHU216DAVISVP2,2013-06-09 23:38:00,
2013-06-09 18:43:00,78.2,60.9,29.78,East,101,6.0,14.0,55,0.00,,,0.25,WUHU216DAVISVP2,2013-06-09 23:43:00,
2013-06-09 18:48:00,77.7,60.5,29.78,ESE,114,5.0,13.0,55,0.00,,,0.25,WUHU216DAVISVP2,2013-06-09 23:48:00,
2013-06-09 18:53:00,77.8,61.5,29.78,East,94,4.0,13.0,57,0.00,,,0.25,WUHU216DAVISVP2,2013-06-09 23:53:00,
2013-06-09 18:58:00,77.4,60.6,29.78,East,98,3.0,13.0,56,0.00,,,0.25,WUHU216DAVISVP2,2013-06-09 23:58:00,
2013-06-09 19:03:00,77.2,61.0,29.78,East,98,4.0,13.0,57,0.00,,,0.25,WUHU216DAVISVP2,2013-06-10 00:03:00,
2013-06-09 19:08:00,77.1,61.4,29.78,East,96,4.0,9.0,58,0.00,,,0.25,WUHU216DAVISVP2,2013-06-10 00:08:00,
2013-06-09 19:13:00,76.9,60.7,29.78,East,96,4.0,9.0,57,0.00,,,0.25,WUHU216DAVISVP2,2013-06-10 00:13:00,
2013-06-09 19:18:00,76.6,61.4,29.78,East,98,4.0,9.0,59,0.00,,,0.25,WUHU216DAVISVP2,2013-06-10 00:18:00,
2013-06-09 19:23:00,76.5,61.3,29.78,East,89,2.0,9.0,59,0.00,,,0.25,WUHU216DAVISVP2,2013-06-10 00:23:00,
2013-06-09 19:28:00,76.5,61.8,29.78,East,91,4.0,9.0,60,0.00,,,0.25,WUHU216DAVISVP2,2013-06-10 00:28:00,
2013-06-09 19:33:00,76.2,62.0,29.78,East,94,2.0,8.0,61,0.00,,,0.25,WUHU216DAVISVP2,2013-06-10 00:33:00,
2013-06-09 19:38:00,76.1,62.3,29.78,East,94,0.0,8.0,62,0.00,,,0.25,WUHU216DAVISVP2,2013-06-10 00:38:00,
2013-06-09 19:43:00,76.2,62.0,29.78,East,94,4.0,7.0,61,0.00,,,0.25,WUHU216DAVISVP2,2013-06-10 00:43:00,
2013-06-09 19:48:00,75.9,61.7,29.78,ESE,106,1.0,7.0,61,0.00,,,0.25,WUHU216DAVISVP2,2013-06-10 00:48:00,
2013-06-09 19:53:00,75.7,61.5,29.79,ESE,103,5.0,7.0,61,0.00,,,0.25,WUHU216DAVISVP2,2013-06-10 00:53:00,
2013-06-09 19:58:00,75.4,61.3,29.78,ESE,103,2.0,7.0,61,0.00,,,0.25,WUHU216DAVISVP2,2013-06-10 00:58:00,
2013-06-09 20:03:00,75.0,61.3,29.78,ESE,103,1.0,6.0,62,0.00,,,0.25,WUHU216DAVISVP2,2013-06-10 01:03:00,
2013-06-09 20:08:00,74.6,60.9,29.78,ESE,103,1.0,6.0,62,0.00,,,0.25,WUHU216DAVISVP2,2013-06-10 01:08:00,
2013-06-09 20:13:00,74.1,60.5,29.78,ESE,103,0.0,5.0,62,0.00,,,0.25,WUHU216DAVISVP2,2013-06-10 01:13:00,
2013-06-09 20:18:00,73.8,60.6,29.78,ESE,103,0.0,5.0,63,0.00,,,0.25,WUHU216DAVISVP2,2013-06-10 01:18:00,
2013-06-09 20:23:00,73.4,60.7,29.78,ESE,103,0.0,5.0,64,0.00,,,0.25,WUHU216DAVISVP2,2013-06-10 01:23:00,
2013-06-09 20:28:00,72.9,61.1,29.78,ESE,103,0.0,2.0,66,0.00,,,0.25,WUHU216DAVISVP2,2013-06-10 01:28:00,
2013-06-09 20:33:00,72.6,61.2,29.78,ESE,103,0.0,1.0,67,0.00,,,0.25,WUHU216DAVISVP2,2013-06-10 01:33:00,
2013-06-09 20:38:00,72.1,60.7,29.78,ESE,103,0.0,0.0,67,0.00,,,0.25,WUHU216DAVISVP2,2013-06-10 01:38:00,
2013-06-09 20:43:00,71.9,60.9,29.78,ESE,103,0.0,0.0,68,0.00,,,0.25,WUHU216DAVISVP2,2013-06-10 01:43:00,
2013-06-09 20:48:00,71.4,60.5,29.78,ESE,103,0.0,0.0,68,0.00,,,0.25,WUHU216DAVISVP2,2013-06-10 01:48:00,
2013-06-09 20:53:00,70.9,61.2,29.78,ESE,103,0.0,0.0,71,0.00,,,0.25,WUHU216DAVISVP2,2013-06-10 01:53:00,
2013-06-09 20:58:00,70.5,61.5,29.78,ESE,103,0.0,0.0,73,0.00,,,0.25,WUHU216DAVISVP2,2013-06-10 01:58:00,
2013-06-09 21:03:00,69.9,61.0,29.78,ESE,103,0.0,1.0,73,0.00,,,0.25,WUHU216DAVISVP2,2013-06-10 02:03:00,
2013-06-09 21:08:00,69.5,60.6,29.78,ESE,103,0.0,1.0,73,0.00,,,0.25,WUHU216DAVISVP2,2013-06-10 02:08:00,
2013-06-09 21:13:00,69.1,59.4,29.78,ESE,103,0.0,1.0,71,0.00,,,0.25,WUHU216DAVISVP2,2013-06-10 02:13:00,
2013-06-09 21:18:00,68.7,60.3,29.78,ESE,103,0.0,1.0,74,0.00,,,0.25,WUHU216DAVISVP2,2013-06-10 02:18:00,
2013-06-09 21:23:00,68.4,60.3,29.78,ESE,103,0.0,0.0,75,0.00,,,0.25,WUHU216DAVISVP2,2013-06-10 02:23:00,
2013-06-09 21:28:00,68.0,59.5,29.79,ESE,103,0.0,0.0,74,0.00,,,0.25,WUHU216DAVISVP2,2013-06-10 02:28:00,
2013-06-09 21:33:00,67.7,59.2,29.79,ESE,103,0.0,0.0,74,0.00,,,0.25,WUHU216DAVISVP2,2013-06-10 02:33:00,
2013-06-09 21:38:00,67.4,59.7,29.79,ESE,103,0.0,0.0,76,0.00,,,0.25,WUHU216DAVISVP2,2013-06-10 02:38:00,
2013-06-09 21:43:00,67.1,59.1,29.79,ESE,103,0.0,0.0,75,0.00,,,0.25,WUHU216DAVISVP2,2013-06-10 02:43:00,
2013-06-09 21:48:00,66.9,59.2,29.79,ESE,103,0.0,0.0,76,0.00,,,0.25,WUHU216DAVISVP2,2013-06-10 02:48:00,
2013-06-09 21:53:00,66.6,58.9,29.79,ESE,103,0.0,0.0,76,0.00,,,0.25,WUHU216DAVISVP2,2013-06-10 02:53:00,
2013-06-09 21:58:00,66.3,58.7,29.80,ESE,103,0.0,0.0,76,0.00,,,0.25,WUHU216DAVISVP2,2013-06-10 02:58:00,
2013-06-09 22:03:00,66.1,58.8,29.80,ESE,103,0.0,0.0,77,0.00,,,0.25,WUHU216DAVISVP2,2013-06-10 03:03:00,
2013-06-09 22:08:00,65.9,58.6,29.80,ESE,103,0.0,0.0,77,0.00,,,0.25,WUHU216DAVISVP2,2013-06-10 03:08:00,
2013-06-09 22:13:00,65.7,58.4,29.80,ESE,103,0.0,0.0,77,0.00,,,0.25,WUHU216DAVISVP2,2013-06-10 03:13:00,
2013-06-09 22:18:00,65.5,58.2,29.81,ESE,103,0.0,0.0,77,0.00,,,0.25,WUHU216DAVISVP2,2013-06-10 03:18:00,
2013-06-09 22:23:00,65.3,58.4,29.81,ESE,103,0.0,0.0,78,0.00,,,0.25,WUHU216DAVISVP2,2013-06-10 03:23:00,
2013-06-09 22:28:00,65.1,58.2,29.81,ESE,103,0.0,0.0,78,0.00,,,0.25,WUHU216DAVISVP2,2013-06-10 03:28:00,
2013-06-09 22:33:00,64.8,57.9,29.81,ESE,103,0.0,0.0,78,0.00,,,0.25,WUHU216DAVISVP2,2013-06-10 03:33:00,
2013-06-09 22:38:00,64.7,58.1,29.81,ESE,103,0.0,0.0,79,0.00,,,0.25,WUHU216DAVISVP2,2013-06-10 03:38:00,
2013-06-09 22:43:00,64.5,57.9,29.81,ESE,103,0.0,0.0,79,0.00,,,0.25,WUHU216DAVISVP2,2013-06-10 03:43:00,
2013-06-09 22:48:00,64.2,57.7,29.81,ESE,103,0.0,0.0,79,0.00,,,0.25,WUHU216DAVISVP2,2013-06-10 03:48:00,
2013-06-09 22:53:00,64.1,57.6,29.81,ESE,103,0.0,1.0,79,0.00,,,0.25,WUHU216DAVISVP2,2013-06-10 03:53:00,
2013-06-09 22:58:00,63.9,57.3,29.81,ESE,103,0.0,1.0,79,0.00,,,0.25,WUHU216DAVISVP2,2013-06-10 03:58:00,
2013-06-09 23:01:00,63.8,57.2,29.81,ESE,103,0.0,1.0,79,0.00,,,0.25,WUHU216DAVISVP2,2013-06-10 04:01:00,
2013-06-09 23:06:00,63.7,57.1,29.81,ESE,103,0.0,1.0,79,0.00,,,0.25,WUHU216DAVISVP2,2013-06-10 04:06:00,
2013-06-09 23:11:00,63.8,57.2,29.81,ESE,103,0.0,0.0,79,0.00,,,0.25,WUHU216DAVISVP2,2013-06-10 04:11:00,
2013-06-09 23:16:00,63.7,57.2,29.81,ESE,103,0.0,0.0,79,0.00,,,0.25,WUHU216DAVISVP2,2013-06-10 04:16:00,
2013-06-09 23:21:00,63.7,57.2,29.81,ESE,103,0.0,0.0,79,0.00,,,0.25,WUHU216DAVISVP2,2013-06-10 04:21:00,
2013-06-09 23:26:00,63.7,56.8,29.81,ESE,103,0.0,0.0,78,0.00,,,0.25,WUHU216DAVISVP2,2013-06-10 04:26:00,
2013-06-09 23:31:00,63.6,56.7,29.81,ESE,103,0.0,0.0,78,0.00,,,0.25,WUHU216DAVISVP2,2013-06-10 04:31:00,
2013-06-09 23:36:00,63.5,56.9,29.81,ESE,103,0.0,0.0,79,0.00,,,0.25,WUHU216DAVISVP2,2013-06-10 04:36:00,
2013-06-09 23:41:00,63.4,56.8,29.81,ESE,103,0.0,0.0,79,0.00,,,0.25,WUHU216DAVISVP2,2013-06-10 04:41:00,
2013-06-09 23:46:00,63.3,56.7,29.81,ESE,103,0.0,0.0,79,0.00,,,0.25,WUHU216DAVISVP2,2013-06-10 04:46:00,
2013-06-09 23:51:00,63.1,56.5,29.81,ESE,103,0.0,0.0,79,0.00,,,0.25,WUHU216DAVISVP2,2013-06-10 04:51:00,
2013-06-09 23:56:00,62.9,56.7,29.81,ESE,103,0.0,0.0,80,0.00,,,0.25,WUHU216DAVISVP2,2013-06-10 04:56:00,